Year,Month,Day,Hour,Minute,Value (Times are PST for temperature in C)
2011,08,16,00,00,11.40
2011,08,16,00,01,11.40
2011,08,16,00,02,11.40
2011,08,16,00,03,11.40
2011,08,16,00,04,11.40
2011,08,16,00,05,11.40
2011,08,16,00,06,11.40
2011,08,16,00,07,11.40
2011,08,16,00,08,11.30
2011,08,16,00,09,11.30
2011,08,16,00,10,11.30
2011,08,16,00,11,11.30
2011,08,16,00,12,11.30
2011,08,16,00,18,11.20
2011,08,16,00,19,11.20
2011,08,16,00,20,11.20
2011,08,16,00,21,11.10
2011,08,16,00,22,11.10
2011,08,16,00,23,11.10
2011,08,16,00,24,11.10
2011,08,16,00,25,11.10
2011,08,16,00,26,11.10
2011,08,16,00,27,11.00
2011,08,16,00,28,11.00
2011,08,16,00,29,11.00
2011,08,16,00,30,11.00
2011,08,16,00,31,10.90
2011,08,16,00,32,10.90
2011,08,16,00,33,10.90
2011,08,16,00,34,10.90
2011,08,16,00,35,10.90
2011,08,16,00,36,10.80
2011,08,16,00,37,10.80
2011,08,16,00,38,10.80
2011,08,16,00,39,10.80
2011,08,16,00,40,10.70
2011,08,16,00,41,10.70
2011,08,16,00,42,10.70
2011,08,16,00,43,10.70
2011,08,16,00,44,10.60
2011,08,16,00,45,10.60
2011,08,16,00,46,10.60
2011,08,16,00,47,10.60
2011,08,16,00,48,10.60
2011,08,16,00,49,10.60
2011,08,16,00,50,10.50
2011,08,16,00,51,10.50
2011,08,16,00,52,10.50
2011,08,16,00,53,10.50
2011,08,16,00,54,10.40
2011,08,16,00,55,10.40
2011,08,16,00,56,10.40
2011,08,16,00,57,10.30
2011,08,16,00,58,10.30
2011,08,16,00,59,10.30
2011,08,16,01,00,10.30
2011,08,16,01,01,10.30
2011,08,16,01,02,10.30
2011,08,16,01,03,10.30
2011,08,16,01,04,10.30
2011,08,16,01,05,10.30
2011,08,16,01,06,10.30
2011,08,16,01,07,10.30
2011,08,16,01,08,10.30
2011,08,16,01,09,10.30
2011,08,16,01,10,10.30
2011,08,16,01,11,10.30
2011,08,16,01,12,10.30
2011,08,16,01,13,10.30
2011,08,16,01,14,10.30
2011,08,16,01,15,10.30
2011,08,16,01,16,10.20
2011,08,16,01,17,10.20
2011,08,16,01,18,10.20
2011,08,16,01,19,10.20
2011,08,16,01,20,10.10
2011,08,16,01,21,10.10
2011,08,16,01,22,10.10
2011,08,16,01,23,10.10
2011,08,16,01,24,10.00
2011,08,16,01,25,10.00
2011,08,16,01,26,10.00
2011,08,16,01,27,10.00
2011,08,16,01,28,10.00
2011,08,16,01,29,10.00
2011,08,16,01,30,10.00
2011,08,16,01,31,10.00
2011,08,16,01,32,10.00
2011,08,16,01,33,10.00
2011,08,16,01,34,10.00
2011,08,16,01,35,10.00
2011,08,16,01,36,10.00
2011,08,16,01,37,10.00
2011,08,16,01,38,10.00
2011,08,16,01,39,10.00
2011,08,16,01,40,10.00
2011,08,16,01,41,9.90
2011,08,16,01,42,9.90
2011,08,16,01,43,9.90
2011,08,16,01,44,9.90
2011,08,16,01,45,9.90
2011,08,16,01,46,9.80
2011,08,16,01,47,9.80
2011,08,16,01,48,9.80
2011,08,16,01,49,9.80
2011,08,16,01,50,9.80
2011,08,16,01,51,9.80
2011,08,16,01,52,9.70
2011,08,16,01,53,9.70
2011,08,16,01,54,9.70
2011,08,16,01,55,9.70
2011,08,16,01,56,9.70
2011,08,16,01,57,9.70
2011,08,16,01,58,9.60
2011,08,16,01,59,9.60
2011,08,16,02,00,9.60
2011,08,16,02,01,9.60
2011,08,16,02,02,9.60
2011,08,16,02,03,9.60
2011,08,16,02,04,9.60
2011,08,16,02,05,9.60
2011,08,16,02,06,9.60
2011,08,16,02,07,9.60
2011,08,16,02,08,9.60
2011,08,16,02,09,9.60
2011,08,16,02,10,9.60
2011,08,16,02,11,9.60
2011,08,16,02,12,9.50
2011,08,16,02,13,9.50
2011,08,16,02,14,9.50
2011,08,16,02,15,9.40
2011,08,16,02,16,9.40
2011,08,16,02,17,9.40
2011,08,16,02,18,9.40
2011,08,16,02,19,9.40
2011,08,16,02,20,9.30
2011,08,16,02,21,9.30
2011,08,16,02,22,9.30
2011,08,16,02,23,9.30
2011,08,16,02,24,9.30
2011,08,16,02,25,9.30
2011,08,16,02,26,9.30
2011,08,16,02,27,9.30
2011,08,16,02,28,9.20
2011,08,16,02,29,9.20
2011,08,16,02,30,9.20
2011,08,16,02,31,9.20
2011,08,16,02,32,9.20
2011,08,16,02,33,9.20
2011,08,16,02,34,9.20
2011,08,16,02,35,9.20
2011,08,16,02,36,9.20
2011,08,16,02,37,9.20
2011,08,16,02,38,9.20
2011,08,16,02,39,9.30
2011,08,16,02,40,9.30
2011,08,16,02,41,9.30
2011,08,16,02,42,9.30
2011,08,16,02,43,9.30
2011,08,16,02,44,9.30
2011,08,16,02,45,9.20
2011,08,16,02,46,9.20
2011,08,16,02,47,9.20
2011,08,16,02,48,9.20
2011,08,16,02,49,9.20
2011,08,16,02,50,9.20
2011,08,16,02,51,9.20
2011,08,16,02,52,9.20
2011,08,16,02,53,9.20
2011,08,16,02,54,9.10
2011,08,16,02,55,9.10
2011,08,16,02,56,9.10
2011,08,16,02,57,9.10
2011,08,16,02,58,9.10
2011,08,16,02,59,9.10
2011,08,16,03,00,9.10
2011,08,16,03,01,9.00
2011,08,16,03,02,9.00
2011,08,16,03,03,9.00
2011,08,16,03,04,8.90
2011,08,16,03,05,8.90
2011,08,16,03,06,8.90
2011,08,16,03,07,8.90
2011,08,16,03,08,8.80
2011,08,16,03,09,8.80
2011,08,16,03,10,8.80
2011,08,16,03,11,8.80
2011,08,16,03,12,8.80
2011,08,16,03,13,8.90
2011,08,16,03,14,8.90
2011,08,16,03,15,8.90
2011,08,16,03,16,8.80
2011,08,16,03,17,8.80
2011,08,16,03,18,8.80
2011,08,16,03,19,8.80
2011,08,16,03,20,8.80
2011,08,16,03,21,8.80
2011,08,16,03,22,8.80
2011,08,16,03,23,8.80
2011,08,16,03,24,8.70
2011,08,16,03,25,8.70
2011,08,16,03,26,8.70
2011,08,16,03,27,8.70
2011,08,16,03,28,8.70
2011,08,16,03,29,8.70
2011,08,16,03,30,8.70
2011,08,16,03,31,8.70
2011,08,16,03,32,8.70
2011,08,16,03,33,8.60
2011,08,16,03,34,8.60
2011,08,16,03,35,8.60
2011,08,16,03,36,8.60
2011,08,16,03,37,8.60
2011,08,16,03,38,8.60
2011,08,16,03,39,8.60
2011,08,16,03,40,8.60
2011,08,16,03,41,8.60
2011,08,16,03,42,8.60
2011,08,16,03,43,8.50
2011,08,16,03,44,8.50
2011,08,16,03,45,8.50
2011,08,16,03,46,8.50
2011,08,16,03,47,8.50
2011,08,16,03,48,8.50
2011,08,16,03,49,8.40
2011,08,16,03,50,8.40
2011,08,16,03,51,8.40
2011,08,16,03,52,8.40
2011,08,16,03,53,8.40
2011,08,16,03,54,8.40
2011,08,16,03,55,8.40
2011,08,16,03,56,8.40
2011,08,16,03,57,8.30
2011,08,16,03,58,8.30
2011,08,16,03,59,8.30
2011,08,16,04,00,8.30
2011,08,16,04,01,8.40
2011,08,16,04,02,8.40
2011,08,16,04,03,8.40
2011,08,16,04,04,8.40
2011,08,16,04,05,8.50
2011,08,16,04,06,8.50
2011,08,16,04,07,8.50
2011,08,16,04,08,8.50
2011,08,16,04,09,8.50
2011,08,16,04,10,8.50
2011,08,16,04,11,8.50
2011,08,16,04,12,8.50
2011,08,16,04,13,8.50
2011,08,16,04,14,8.50
2011,08,16,04,15,8.50
2011,08,16,04,16,8.40
2011,08,16,04,17,8.40
2011,08,16,04,18,8.40
2011,08,16,04,19,8.40
2011,08,16,04,20,8.40
2011,08,16,04,21,8.30
2011,08,16,04,22,8.30
2011,08,16,04,23,8.30
2011,08,16,04,24,8.30
2011,08,16,04,25,8.30
2011,08,16,04,26,8.30
2011,08,16,04,27,8.30
2011,08,16,04,28,8.30
2011,08,16,04,29,8.30
2011,08,16,04,30,8.30
2011,08,16,04,31,8.30
2011,08,16,04,32,8.30
2011,08,16,04,33,8.30
2011,08,16,04,34,8.30
2011,08,16,04,35,8.30
2011,08,16,04,36,8.20
2011,08,16,04,37,8.20
2011,08,16,04,38,8.20
2011,08,16,04,39,8.20
2011,08,16,04,40,8.20
2011,08,16,04,41,8.20
2011,08,16,04,42,8.10
2011,08,16,04,43,8.10
2011,08,16,04,44,8.10
2011,08,16,04,45,8.10
2011,08,16,04,46,8.10
2011,08,16,04,47,8.10
2011,08,16,04,48,8.10
2011,08,16,04,49,8.10
2011,08,16,04,50,8.10
2011,08,16,04,51,8.10
2011,08,16,04,52,8.10
2011,08,16,04,53,8.10
2011,08,16,04,54,8.10
2011,08,16,04,55,8.10
2011,08,16,04,56,8.10
2011,08,16,04,57,8.10
2011,08,16,04,58,8.00
2011,08,16,04,59,8.00
2011,08,16,05,00,8.00
2011,08,16,05,01,8.00
2011,08,16,05,02,8.00
2011,08,16,05,03,7.90
2011,08,16,05,04,7.90
2011,08,16,05,05,7.90
2011,08,16,05,06,7.90
2011,08,16,05,07,7.90
2011,08,16,05,08,7.90
2011,08,16,05,09,7.90
2011,08,16,05,10,7.80
2011,08,16,05,11,7.80
2011,08,16,05,12,7.80
2011,08,16,05,13,7.80
2011,08,16,05,14,7.80
2011,08,16,05,15,7.70
2011,08,16,05,16,7.70
2011,08,16,05,17,7.70
2011,08,16,05,18,7.70
2011,08,16,05,19,7.70
2011,08,16,05,20,7.70
2011,08,16,05,21,7.70
2011,08,16,05,22,7.60
2011,08,16,05,23,7.60
2011,08,16,05,24,7.60
2011,08,16,05,25,7.60
2011,08,16,05,26,7.50
2011,08,16,05,27,7.50
2011,08,16,05,28,7.50
2011,08,16,05,29,7.50
2011,08,16,05,30,7.50
2011,08,16,05,31,7.50
2011,08,16,05,32,7.50
2011,08,16,05,33,7.50
2011,08,16,05,34,7.50
2011,08,16,05,35,7.50
2011,08,16,05,36,7.60
2011,08,16,05,37,7.60
2011,08,16,05,38,7.60
2011,08,16,05,39,7.60
2011,08,16,05,40,7.60
2011,08,16,05,41,7.60
2011,08,16,05,42,7.60
2011,08,16,05,43,7.60
2011,08,16,05,44,7.60
2011,08,16,05,45,7.60
2011,08,16,05,46,7.60
2011,08,16,05,47,7.60
2011,08,16,05,48,7.60
2011,08,16,05,49,7.60
2011,08,16,05,50,7.60
2011,08,16,05,51,7.60
2011,08,16,05,52,7.60
2011,08,16,05,53,7.60
2011,08,16,05,54,7.70
2011,08,16,05,55,7.70
2011,08,16,05,56,7.70
2011,08,16,05,57,7.70
2011,08,16,05,58,7.70
2011,08,16,05,59,7.70
2011,08,16,06,00,7.70
2011,08,16,06,01,7.70
2011,08,16,06,02,7.70
2011,08,16,06,03,7.70
2011,08,16,06,04,7.70
2011,08,16,06,05,7.60
2011,08,16,06,06,7.60
2011,08,16,06,07,7.60
2011,08,16,06,08,7.60
2011,08,16,06,09,7.60
2011,08,16,06,10,7.60
2011,08,16,06,11,7.60
2011,08,16,06,12,7.60
2011,08,16,06,13,7.60
2011,08,16,06,14,7.50
2011,08,16,06,15,7.50
2011,08,16,06,16,7.50
2011,08,16,06,17,7.50
2011,08,16,06,18,7.50
2011,08,16,06,19,7.50
2011,08,16,06,20,7.50
2011,08,16,06,21,7.50
2011,08,16,06,22,7.50
2011,08,16,06,23,7.50
2011,08,16,06,24,7.50
2011,08,16,06,25,7.50
2011,08,16,06,26,7.50
2011,08,16,06,27,7.60
2011,08,16,06,28,7.60
2011,08,16,06,29,7.60
2011,08,16,06,30,7.60
2011,08,16,06,31,7.60
2011,08,16,06,32,7.60
2011,08,16,06,33,7.60
2011,08,16,06,34,7.60
2011,08,16,06,35,7.60
2011,08,16,06,36,7.60
2011,08,16,06,37,7.60
2011,08,16,06,38,7.60
2011,08,16,06,39,7.60
2011,08,16,06,40,7.70
2011,08,16,06,41,7.70
2011,08,16,06,42,7.70
2011,08,16,06,43,7.70
2011,08,16,06,44,7.70
2011,08,16,06,45,7.70
2011,08,16,06,46,7.70
2011,08,16,06,47,7.70
2011,08,16,06,48,7.70
2011,08,16,06,49,7.70
2011,08,16,06,50,7.70
2011,08,16,06,51,7.70
2011,08,16,06,52,7.80
2011,08,16,06,53,7.80
2011,08,16,06,54,7.80
2011,08,16,06,55,7.80
2011,08,16,06,56,7.80
2011,08,16,06,57,7.80
2011,08,16,06,58,7.80
2011,08,16,06,59,7.90
2011,08,16,07,00,7.90
2011,08,16,07,01,8.00
2011,08,16,07,02,8.00
2011,08,16,07,03,8.10
2011,08,16,07,04,8.10
2011,08,16,07,05,8.10
2011,08,16,07,06,8.10
2011,08,16,07,07,8.20
2011,08,16,07,08,8.20
2011,08,16,07,09,8.20
2011,08,16,07,10,8.20
2011,08,16,07,11,8.20
2011,08,16,07,12,8.30
2011,08,16,07,13,8.30
2011,08,16,07,14,8.30
2011,08,16,07,15,8.30
2011,08,16,07,16,8.30
2011,08,16,07,17,8.30
2011,08,16,07,18,8.30
2011,08,16,07,19,8.40
2011,08,16,07,20,8.40
2011,08,16,07,21,8.50
2011,08,16,07,22,8.50
2011,08,16,07,23,8.60
2011,08,16,07,24,8.70
2011,08,16,07,25,8.70
2011,08,16,07,26,8.80
2011,08,16,07,27,8.90
2011,08,16,07,28,8.90
2011,08,16,07,29,9.00
2011,08,16,07,30,9.00
2011,08,16,07,31,9.10
2011,08,16,07,32,9.20
2011,08,16,07,33,9.20
2011,08,16,07,34,9.30
2011,08,16,07,35,9.30
2011,08,16,07,36,9.40
2011,08,16,07,37,9.40
2011,08,16,07,38,9.50
2011,08,16,07,39,9.60
2011,08,16,07,40,9.60
2011,08,16,07,41,9.70
2011,08,16,07,42,9.70
2011,08,16,07,43,9.80
2011,08,16,07,44,9.90
2011,08,16,07,45,10.00
2011,08,16,07,46,10.10
2011,08,16,07,47,10.20
2011,08,16,07,48,10.30
2011,08,16,07,49,10.50
2011,08,16,07,50,10.60
2011,08,16,07,51,10.80
2011,08,16,07,52,10.90
2011,08,16,07,53,11.00
2011,08,16,07,54,11.10
2011,08,16,07,55,11.20
2011,08,16,07,56,11.30
2011,08,16,07,57,11.40
2011,08,16,07,58,11.50
2011,08,16,07,59,11.60
2011,08,16,08,00,11.70
2011,08,16,08,01,11.80
2011,08,16,08,02,12.00
2011,08,16,08,03,12.10
2011,08,16,08,04,12.20
2011,08,16,08,05,12.30
2011,08,16,08,06,12.40
2011,08,16,08,07,12.60
2011,08,16,08,08,12.80
2011,08,16,08,09,13.00
2011,08,16,08,10,13.20
2011,08,16,08,11,13.30
2011,08,16,08,12,13.50
2011,08,16,08,13,13.70
2011,08,16,08,14,13.90
2011,08,16,08,15,14.00
2011,08,16,08,16,14.10
2011,08,16,08,17,14.20
2011,08,16,08,18,14.30
2011,08,16,08,19,14.40
2011,08,16,08,20,14.40
2011,08,16,08,21,14.40
2011,08,16,08,22,14.40
2011,08,16,08,23,14.50
2011,08,16,08,24,14.60
2011,08,16,08,25,14.70
2011,08,16,08,26,14.80
2011,08,16,08,27,14.90
2011,08,16,08,28,15.00
2011,08,16,08,29,15.00
2011,08,16,08,30,15.10
2011,08,16,08,31,15.30
2011,08,16,08,32,15.40
2011,08,16,08,33,15.50
2011,08,16,08,34,15.50
2011,08,16,08,35,15.60
2011,08,16,08,36,15.60
2011,08,16,08,37,15.60
2011,08,16,08,38,15.60
2011,08,16,08,39,15.70
2011,08,16,08,40,15.70
2011,08,16,08,41,15.80
2011,08,16,08,42,15.80
2011,08,16,08,43,15.90
2011,08,16,08,44,16.00
2011,08,16,08,45,16.10
2011,08,16,08,46,16.20
2011,08,16,08,47,16.20
2011,08,16,08,48,16.20
2011,08,16,08,49,16.30
2011,08,16,08,50,16.30
2011,08,16,08,51,16.30
2011,08,16,08,52,16.40
2011,08,16,08,53,16.40
2011,08,16,08,54,16.50
2011,08,16,08,55,16.60
2011,08,16,08,56,16.60
2011,08,16,08,57,16.70
2011,08,16,08,58,16.80
2011,08,16,08,59,16.80
2011,08,16,09,00,16.80
2011,08,16,09,01,16.80
2011,08,16,09,02,16.80
2011,08,16,09,03,16.90
2011,08,16,09,04,16.90
2011,08,16,09,05,17.00
2011,08,16,09,06,17.00
2011,08,16,09,07,17.10
2011,08,16,09,08,17.10
2011,08,16,09,09,17.20
2011,08,16,09,10,17.30
2011,08,16,09,11,17.30
2011,08,16,09,12,17.40
2011,08,16,09,13,17.50
2011,08,16,09,14,17.60
2011,08,16,09,15,17.60
2011,08,16,09,16,17.70
2011,08,16,09,17,17.70
2011,08,16,09,18,17.80
2011,08,16,09,19,17.80
2011,08,16,09,20,17.80
2011,08,16,09,21,17.80
2011,08,16,09,22,17.70
2011,08,16,09,23,17.70
2011,08,16,09,24,17.70
2011,08,16,09,25,17.70
2011,08,16,09,26,17.70
2011,08,16,09,27,17.70
2011,08,16,09,28,17.70
2011,08,16,09,29,17.80
2011,08,16,09,30,17.70
2011,08,16,09,31,17.70
2011,08,16,09,32,17.70
2011,08,16,09,33,17.80
2011,08,16,09,34,17.80
2011,08,16,09,35,17.70
2011,08,16,09,36,17.70
2011,08,16,09,37,17.80
2011,08,16,09,38,17.80
2011,08,16,09,39,17.90
2011,08,16,09,40,17.80
2011,08,16,09,41,17.70
2011,08,16,09,42,17.50
2011,08,16,09,43,17.40
2011,08,16,09,44,17.30
2011,08,16,09,45,17.20
2011,08,16,09,46,17.20
2011,08,16,09,47,17.20
2011,08,16,09,48,17.20
2011,08,16,09,49,17.20
2011,08,16,09,50,17.20
2011,08,16,09,51,17.20
2011,08,16,09,52,17.30
2011,08,16,09,53,17.20
2011,08,16,09,54,17.20
2011,08,16,09,55,17.20
2011,08,16,09,56,17.20
2011,08,16,09,57,17.20
2011,08,16,09,58,17.20
2011,08,16,09,59,17.20
2011,08,16,10,00,17.20
2011,08,16,10,01,17.20
2011,08,16,10,02,17.30
2011,08,16,10,03,17.30
2011,08,16,10,04,17.40
2011,08,16,10,05,17.60
2011,08,16,10,06,17.70
2011,08,16,10,07,17.70
2011,08,16,10,08,17.70
2011,08,16,10,09,17.70
2011,08,16,10,10,17.80
2011,08,16,10,11,17.80
2011,08,16,10,12,17.80
2011,08,16,10,13,17.90
2011,08,16,10,14,18.00
2011,08,16,10,15,18.10
2011,08,16,10,16,18.10
2011,08,16,10,17,18.20
2011,08,16,10,18,18.20
2011,08,16,10,19,18.30
2011,08,16,10,20,18.40
2011,08,16,10,21,18.40
2011,08,16,10,22,18.40
2011,08,16,10,23,18.40
2011,08,16,10,24,18.50
2011,08,16,10,25,18.60
2011,08,16,10,26,18.60
2011,08,16,10,27,18.80
2011,08,16,10,28,18.90
2011,08,16,10,29,18.90
2011,08,16,10,30,18.90
2011,08,16,10,31,18.90
2011,08,16,10,32,18.80
2011,08,16,10,33,18.80
2011,08,16,10,34,18.90
2011,08,16,10,35,18.90
2011,08,16,10,36,18.90
2011,08,16,10,37,18.80
2011,08,16,10,38,18.70
2011,08,16,10,39,18.70
2011,08,16,10,40,18.60
2011,08,16,10,41,18.60
2011,08,16,10,42,18.70
2011,08,16,10,43,18.70
2011,08,16,10,44,18.70
2011,08,16,10,45,18.80
2011,08,16,10,46,18.80
2011,08,16,10,47,18.80
2011,08,16,10,48,18.80
2011,08,16,10,49,18.90
2011,08,16,10,50,18.90
2011,08,16,10,51,19.00
2011,08,16,10,52,19.10
2011,08,16,10,53,19.20
2011,08,16,10,54,19.20
2011,08,16,10,55,19.10
2011,08,16,10,56,19.10
2011,08,16,10,57,19.20
2011,08,16,10,58,19.30
2011,08,16,10,59,19.30
2011,08,16,11,00,19.30
2011,08,16,11,01,19.30
2011,08,16,11,02,19.30
2011,08,16,11,03,19.30
2011,08,16,11,04,19.40
2011,08,16,11,05,19.40
2011,08,16,11,06,19.50
2011,08,16,11,07,19.70
2011,08,16,11,08,19.90
2011,08,16,11,09,20.00
2011,08,16,11,10,20.00
2011,08,16,11,11,19.90
2011,08,16,11,12,19.80
2011,08,16,11,13,19.80
2011,08,16,11,14,19.70
2011,08,16,11,15,19.50
2011,08,16,11,16,19.40
2011,08,16,11,17,19.30
2011,08,16,11,18,19.30
2011,08,16,11,19,19.20
2011,08,16,11,20,19.20
2011,08,16,11,21,19.20
2011,08,16,11,22,19.10
2011,08,16,11,23,19.00
2011,08,16,11,24,19.00
2011,08,16,11,25,19.00
2011,08,16,11,26,19.10
2011,08,16,11,27,19.20
2011,08,16,11,28,19.30
2011,08,16,11,29,19.50
2011,08,16,11,30,19.60
2011,08,16,11,31,19.60
2011,08,16,11,32,19.80
2011,08,16,11,33,19.80
2011,08,16,11,34,19.70
2011,08,16,11,35,19.60
2011,08,16,11,36,19.50
2011,08,16,11,37,19.40
2011,08,16,11,38,19.30
2011,08,16,11,39,19.40
2011,08,16,11,40,19.50
2011,08,16,11,41,19.60
2011,08,16,11,42,19.50
2011,08,16,11,43,19.30
2011,08,16,11,44,19.20
2011,08,16,11,45,19.30
2011,08,16,11,46,19.30
2011,08,16,11,47,19.30
2011,08,16,11,48,19.40
2011,08,16,11,49,19.40
2011,08,16,11,50,19.50
2011,08,16,11,51,19.40
2011,08,16,11,52,19.30
2011,08,16,11,53,19.30
2011,08,16,11,54,19.20
2011,08,16,11,55,19.20
2011,08,16,11,56,19.20
2011,08,16,11,57,19.10
2011,08,16,11,58,19.00
2011,08,16,11,59,19.00
2011,08,16,12,00,19.10
2011,08,16,12,01,19.20
2011,08,16,12,02,19.10
2011,08,16,12,03,19.10
2011,08,16,12,04,19.10
2011,08,16,12,05,19.20
2011,08,16,12,06,19.30
2011,08,16,12,07,19.40
2011,08,16,12,08,19.50
2011,08,16,12,09,19.50
2011,08,16,12,10,19.40
2011,08,16,12,11,19.30
2011,08,16,12,12,19.20
2011,08,16,12,13,19.10
2011,08,16,12,14,19.10
2011,08,16,12,15,19.20
2011,08,16,12,16,19.40
2011,08,16,12,17,19.50
2011,08,16,12,18,19.60
2011,08,16,12,19,19.70
2011,08,16,12,20,19.80
2011,08,16,12,21,19.90
2011,08,16,12,22,20.00
2011,08,16,12,23,20.10
2011,08,16,12,24,20.20
2011,08,16,12,25,20.30
2011,08,16,12,26,20.40
2011,08,16,12,27,20.40
2011,08,16,12,28,20.50
2011,08,16,12,29,20.60
2011,08,16,12,30,20.70
2011,08,16,12,31,20.80
2011,08,16,12,32,20.80
2011,08,16,12,33,20.70
2011,08,16,12,34,20.70
2011,08,16,12,35,20.80
2011,08,16,12,36,20.80
2011,08,16,12,37,20.80
2011,08,16,12,38,20.90
2011,08,16,12,39,20.90
2011,08,16,12,40,21.00
2011,08,16,12,41,20.80
2011,08,16,12,42,20.70
2011,08,16,12,43,20.70
2011,08,16,12,44,20.70
2011,08,16,12,45,20.60
2011,08,16,12,46,20.60
2011,08,16,12,47,20.60
2011,08,16,12,48,20.50
2011,08,16,12,49,20.50
2011,08,16,12,50,20.60
2011,08,16,12,51,20.60
2011,08,16,12,52,20.50
2011,08,16,12,53,20.40
2011,08,16,12,54,20.20
2011,08,16,12,55,20.00
2011,08,16,12,56,19.80
2011,08,16,12,57,19.70
2011,08,16,12,58,19.70
2011,08,16,12,59,19.60
2011,08,16,13,00,19.50
2011,08,16,13,01,19.30
2011,08,16,13,02,19.30
2011,08,16,13,03,19.30
2011,08,16,13,04,19.30
2011,08,16,13,05,19.30
2011,08,16,13,06,19.30
2011,08,16,13,07,19.30
2011,08,16,13,08,19.40
2011,08,16,13,09,19.40
2011,08,16,13,10,19.50
2011,08,16,13,11,19.50
2011,08,16,13,12,19.60
2011,08,16,13,13,19.50
2011,08,16,13,14,19.50
2011,08,16,13,15,19.50
2011,08,16,13,16,19.60
2011,08,16,13,17,19.70
2011,08,16,13,18,19.70
2011,08,16,13,19,19.70
2011,08,16,13,20,19.80
2011,08,16,13,21,19.90
2011,08,16,13,22,20.00
2011,08,16,13,23,20.10
2011,08,16,13,24,20.30
2011,08,16,13,25,20.20
2011,08,16,13,26,20.20
2011,08,16,13,27,20.10
2011,08,16,13,28,20.10
2011,08,16,13,29,20.30
2011,08,16,13,30,20.40
2011,08,16,13,31,20.40
2011,08,16,13,32,20.30
2011,08,16,13,33,20.30
2011,08,16,13,34,20.40
2011,08,16,13,35,20.30
2011,08,16,13,36,20.10
2011,08,16,13,37,20.10
2011,08,16,13,38,20.20
2011,08,16,13,39,20.40
2011,08,16,13,40,20.50
2011,08,16,13,41,20.50
2011,08,16,13,42,20.50
2011,08,16,13,43,20.40
2011,08,16,13,44,20.50
2011,08,16,13,45,20.50
2011,08,16,13,46,20.40
2011,08,16,13,47,20.20
2011,08,16,13,48,20.10
2011,08,16,13,49,20.10
2011,08,16,13,50,20.10
2011,08,16,13,51,20.10
2011,08,16,13,52,20.10
2011,08,16,13,53,20.20
2011,08,16,13,54,20.20
2011,08,16,13,55,20.30
2011,08,16,13,56,20.30
2011,08,16,13,57,20.20
2011,08,16,13,58,20.20
2011,08,16,13,59,20.30
2011,08,16,14,00,20.50
2011,08,16,14,01,20.50
2011,08,16,14,02,20.50
2011,08,16,14,03,20.60
2011,08,16,14,04,20.60
2011,08,16,14,05,20.60
2011,08,16,14,06,20.60
2011,08,16,14,07,20.60
2011,08,16,14,08,20.70
2011,08,16,14,09,20.70
2011,08,16,14,10,20.70
2011,08,16,14,11,20.80
2011,08,16,14,12,20.80
2011,08,16,14,13,20.80
2011,08,16,14,14,20.80
2011,08,16,14,15,20.80
2011,08,16,14,16,20.70
2011,08,16,14,17,20.70
2011,08,16,14,18,20.70
2011,08,16,14,19,20.70
2011,08,16,14,20,20.80
2011,08,16,14,21,20.80
2011,08,16,14,22,20.80
2011,08,16,14,23,20.80
2011,08,16,14,24,20.80
2011,08,16,14,25,20.80
2011,08,16,14,26,20.80
2011,08,16,14,27,20.80
2011,08,16,14,28,20.90
2011,08,16,14,29,21.00
2011,08,16,14,30,21.00
2011,08,16,14,31,21.20
2011,08,16,14,32,21.30
2011,08,16,14,33,21.30
2011,08,16,14,34,21.30
2011,08,16,14,35,21.20
2011,08,16,14,36,21.20
2011,08,16,14,37,21.20
2011,08,16,14,38,21.20
2011,08,16,14,39,21.20
2011,08,16,14,40,21.20
2011,08,16,14,41,21.20
2011,08,16,14,42,21.30
2011,08,16,14,43,21.30
2011,08,16,14,44,21.30
2011,08,16,14,45,21.40
2011,08,16,14,46,21.30
2011,08,16,14,47,21.30
2011,08,16,14,48,21.30
2011,08,16,14,49,21.30
2011,08,16,14,50,21.40
2011,08,16,14,51,21.50
2011,08,16,14,52,21.50
2011,08,16,14,53,21.40
2011,08,16,14,54,21.30
2011,08,16,14,55,21.30
2011,08,16,14,56,21.30
2011,08,16,14,57,21.40
2011,08,16,14,58,21.40
2011,08,16,14,59,21.30
2011,08,16,15,00,21.20
2011,08,16,15,01,21.20
2011,08,16,15,02,21.10
2011,08,16,15,03,21.10
2011,08,16,15,04,21.20
2011,08,16,15,05,21.30
2011,08,16,15,06,21.50
2011,08,16,15,07,21.60
2011,08,16,15,08,21.60
2011,08,16,15,09,21.60
2011,08,16,15,10,21.60
2011,08,16,15,11,21.70
2011,08,16,15,12,21.70
2011,08,16,15,13,21.70
2011,08,16,15,14,21.60
2011,08,16,15,15,21.60
2011,08,16,15,16,21.60
2011,08,16,15,17,21.60
2011,08,16,15,18,21.60
2011,08,16,15,19,21.70
2011,08,16,15,20,21.70
2011,08,16,15,21,21.70
2011,08,16,15,22,21.80
2011,08,16,15,23,21.90
2011,08,16,15,24,22.00
2011,08,16,15,25,22.10
2011,08,16,15,26,22.10
2011,08,16,15,27,22.10
2011,08,16,15,28,22.20
2011,08,16,15,29,22.20
2011,08,16,15,30,22.20
2011,08,16,15,31,22.20
2011,08,16,15,32,22.20
2011,08,16,15,33,22.20
2011,08,16,15,34,22.20
2011,08,16,15,35,22.20
2011,08,16,15,36,22.10
2011,08,16,15,37,22.00
2011,08,16,15,38,22.00
2011,08,16,15,39,22.00
2011,08,16,15,40,22.10
2011,08,16,15,41,22.20
2011,08,16,15,42,22.40
2011,08,16,15,43,22.50
2011,08,16,15,44,22.60
2011,08,16,15,45,22.70
2011,08,16,15,46,22.80
2011,08,16,15,47,22.70
2011,08,16,15,48,22.50
2011,08,16,15,49,22.30
2011,08,16,15,50,22.10
2011,08,16,15,51,22.00
2011,08,16,15,52,22.00
2011,08,16,15,53,22.00
2011,08,16,15,54,22.00
2011,08,16,15,55,22.10
2011,08,16,15,56,22.20
2011,08,16,15,57,22.20
2011,08,16,15,58,22.30
2011,08,16,15,59,22.30
2011,08,16,16,00,22.30
2011,08,16,16,01,22.50
2011,08,16,16,02,22.60
2011,08,16,16,03,22.60
2011,08,16,16,04,22.60
2011,08,16,16,05,22.60
2011,08,16,16,06,22.70
2011,08,16,16,07,22.70
2011,08,16,16,08,22.50
2011,08,16,16,09,22.40
2011,08,16,16,10,22.20
2011,08,16,16,11,22.00
2011,08,16,16,12,21.90
2011,08,16,16,13,21.80
2011,08,16,16,14,21.80
2011,08,16,16,15,21.90
2011,08,16,16,16,22.00
2011,08,16,16,17,22.20
2011,08,16,16,18,22.30
2011,08,16,16,19,22.40
2011,08,16,16,20,22.50
2011,08,16,16,21,22.50
2011,08,16,16,22,22.60
2011,08,16,16,23,22.70
2011,08,16,16,24,22.80
2011,08,16,16,25,22.80
2011,08,16,16,26,22.90
2011,08,16,16,27,23.00
2011,08,16,16,28,23.00
2011,08,16,16,29,22.90
2011,08,16,16,30,22.90
2011,08,16,16,31,22.90
2011,08,16,16,32,23.00
2011,08,16,16,33,23.10
2011,08,16,16,34,23.00
2011,08,16,16,35,22.80
2011,08,16,16,36,22.70
2011,08,16,16,37,22.60
2011,08,16,16,38,22.60
2011,08,16,16,39,22.50
2011,08,16,16,40,22.50
2011,08,16,16,41,22.50
2011,08,16,16,42,22.60
2011,08,16,16,43,22.60
2011,08,16,16,44,22.60
2011,08,16,16,45,22.60
2011,08,16,16,46,22.50
2011,08,16,16,47,22.40
2011,08,16,16,48,22.40
2011,08,16,16,49,22.40
2011,08,16,16,50,22.40
2011,08,16,16,51,22.30
2011,08,16,16,52,22.30
2011,08,16,16,53,22.30
2011,08,16,16,54,22.20
2011,08,16,16,55,22.10
2011,08,16,16,56,22.10
2011,08,16,16,57,22.00
2011,08,16,16,58,22.00
2011,08,16,16,59,22.10
2011,08,16,17,00,22.20
2011,08,16,17,01,22.20
2011,08,16,17,02,22.20
2011,08,16,17,03,22.20
2011,08,16,17,04,22.20
2011,08,16,17,05,22.20
2011,08,16,17,06,22.10
2011,08,16,17,07,22.10
2011,08,16,17,08,22.20
2011,08,16,17,09,22.20
2011,08,16,17,10,22.20
2011,08,16,17,11,22.10
2011,08,16,17,12,22.10
2011,08,16,17,13,22.20
2011,08,16,17,14,22.20
2011,08,16,17,15,22.30
2011,08,16,17,16,22.40
2011,08,16,17,17,22.40
2011,08,16,17,18,22.40
2011,08,16,17,19,22.50
2011,08,16,17,20,22.50
2011,08,16,17,21,22.50
2011,08,16,17,22,22.50
2011,08,16,17,23,22.60
2011,08,16,17,24,22.70
2011,08,16,17,25,22.70
2011,08,16,17,26,22.80
2011,08,16,17,27,22.80
2011,08,16,17,28,22.90
2011,08,16,17,29,22.90
2011,08,16,17,30,23.00
2011,08,16,17,31,22.90
2011,08,16,17,32,22.80
2011,08,16,17,33,22.70
2011,08,16,17,34,22.70
2011,08,16,17,35,22.50
2011,08,16,17,36,22.30
2011,08,16,17,37,22.30
2011,08,16,17,38,22.20
2011,08,16,17,39,22.20
2011,08,16,17,40,22.10